Hourly Weather Roundup
Issued by NWS Central Illinois

Home | Current Version | Previous Version | Text Only | Print | Product List | Glossary On
Versions: 1 2 3 4 5 6 7 8 9 10 11 12 13 14 15 16 17 18 19 20 21 22 23 24 25 26 27 28 29 30 31 32 33 34 35 36 37 38 39 40 41 42 43 44 45 46 47 48 49 50
588
NZUS43 KILX 241310
HWRILX

AREA WEATHER ROUNDUP
NATIONAL WEATHER SERVICE, LINCOLN IL
800 AM CDT TUE MAY 24 2016


CITY           SKY/WX    TMP DP  RH WIND       PRES   REMARKS
BLOOMINGTON    SUNNY     69  56  63 S9        30.04R
CHAMPAIGN      MOSUNNY   70  50  49 S12       30.04R
DANVILLE       MOSUNNY   65  49  55 S7        30.03R
DECATUR        MOSUNNY   69  53  56 S10       30.04R
EFFINGHAM      CLOUDY    66  56  70 CALM      30.07R
FLORA          PTSUNNY   64  56  77 S3        30.06R
GALESBURG      SUNNY     68  57  67 S8        29.97F
JACKSONVILLE   MOSUNNY   68  55  63 S7        30.00S
LACON          SUNNY     68  54  62 S7        29.99F
LAWRENCEVILLE  MOSUNNY   66  52  60 S7        30.07R
LITCHFIELD     PTSUNNY   69  55  62 S7        30.02S
$$


CITY           SKY/WX    TMP DP  RH WIND       PRES   REMARKS
LINCOLN        SUNNY     69  57  65 S8        30.02R
MACOMB         SUNNY     69  56  63 S9        30.00S
MATTOON        MOSUNNY   64  50  60 S7        30.04R
MT CARMEL AP   PTSUNNY   67  51  57 S5        30.06R
OLNEY-NOBLE AP CLOUDY    63  54  72 SE3       30.06R
PARIS          SUNNY     67  51  57 S5        30.06R
PEORIA         SUNNY     67  55  65 S8        30.01R
PONTIAC        SUNNY     71  55  56 S8        30.03R
RANTOUL        SUNNY     69  51  53 SW6       30.05R
ROBINSON       PTSUNNY   65  55  71 S3        30.07R
SPRINGFIELD    SUNNY     72  56  57 S9        30.01R
TAYLORVILLE    MOSUNNY   68  57  66 S7        30.03R
$$

...REGIONAL REPORTS...


CITY           SKY/WX    TMP DP  RH WIND       PRES   REMARKS
CHICAGO O`HARE MOSUNNY   67  50  54 SW5       30.01R
KANKAKEE       SUNNY    N/A N/A N/A SW7       30.04R
MOLINE         SUNNY     70  56  61 S8        29.94F
MOUNT STERLING MOSUNNY   67  57  70 S6        29.99R
MOUNT VERNON   CLOUDY    66  55  68 CALM      30.05S
PITTSFIELD     MOSUNNY   67  58  72 S5        30.00S
QUINCY         SUNNY     69  55  60 S9        29.97S
ROCKFORD       MOSUNNY   69  53  56 S7        29.98S
$$


CITY           SKY/WX    TMP DP  RH WIND       PRES   REMARKS
BURLINGTON     CLOUDY    67  58  72 S7        29.94F
CEDAR RAPIDS   CLOUDY    66  63  90 S5        29.89F
DES MOINES     CLOUDY    65  61  87 S5        29.92R
KIRKSVILLE     CLOUDY    67  62  84 S9        29.95S
OTTUMWA        PTSUNNY   67  60  78 S9        29.92R
ST LOUIS       PTSUNNY   71  55  56 S7        30.01R
$$


CITY           SKY/WX    TMP DP  RH WIND       PRES   REMARKS
TERRE HAUTE    MOSUNNY   64  50  60 S5        30.07R
EVANSVILLE     MOSUNNY   66  52  60 CALM      30.08R
INDIANAPOLIS   PTSUNNY   64  51  62 S6        30.08R
LAFAYETTE      MOSUNNY   66  48  52 S5        30.06R
MADISON        PTSUNNY   67  50  54 S8        29.93S
MILWAUKEE      MOSUNNY   68  50  52 SW8       29.98R
$$






USA.gov is the U.S. government's official web portal to all federal, state and local government web resources and services.